owner,sensor,date,latitude,longitude,vertical_datum,direction_of_sea_water_velocity,sea_water_speed,upward_sea_water_velocity,qcFlag 
TABS,ioos:station:TABS:G:1,1997-07-01T00:00:00Z,29.5500,-93.4666,2.0,133.0112616,6.113084328,-99999.0,'11133222,11111222,99999999' 
TABS,ioos:station:TABS:G:1,1997-07-01T00:30:00Z,29.5500,-93.4666,2.0,101.309906,6.832686148,-99999.0,'11133222,11111222,99999999' 
TABS,ioos:station:TABS:G:1,1997-07-01T01:00:00Z,29.5500,-93.4666,2.0,95.63592752,7.636916917,-99999.0,'11133222,11111222,99999999' 
TABS,ioos:station:TABS:G:1,1997-07-01T01:30:00Z,29.5500,-93.4666,2.0,80.12245594,10.43467776,-99999.0,'11111222,11111222,99999999' 
TABS,ioos:station:TABS:G:1,1997-07-01T02:00:00Z,29.5500,-93.4666,2.0,74.85697872,18.83397993,-99999.0,'11111222,11111222,99999999' 
TABS,ioos:station:TABS:G:1,1997-07-01T02:30:00Z,29.5500,-93.4666,2.0,76.33923844,21.46728907,-99999.0,'11111222,11111222,99999999' 
TABS,ioos:station:TABS:G:1,1997-07-01T03:00:00Z,29.5500,-93.4666,2.0,81.0764378,23.07935008,-99999.0,'11111222,11111222,99999999' 
TABS,ioos:station:TABS:G:1,1997-07-01T03:30:00Z,29.5500,-93.4666,2.0,87.47031659,23.56296246,-99999.0,'11111222,11111222,99999999' 
TABS,ioos:station:TABS:G:1,1997-07-01T04:00:00Z,29.5500,-93.4666,2.0,83.18364646,30.16320441,-99999.0,'11111222,11111222,99999999' 
TABS,ioos:station:TABS:G:1,1997-07-01T04:30:00Z,29.5500,-93.4666,2.0,81.27388463,30.45249415,-99999.0,'11111222,11111222,99999999' 
TABS,ioos:station:TABS:G:1,1997-07-01T05:00:00Z,29.5500,-93.4666,2.0,82.61656828,32.449057,-99999.0,'11111222,11111222,99999999' 
TABS,ioos:station:TABS:G:1,1997-07-01T05:30:00Z,29.5500,-93.4666,2.0,90.99866083,34.42522912,-99999.0,'11111222,11111222,99999999' 
TABS,ioos:station:TABS:G:1,1997-07-01T06:00:00Z,29.5500,-93.4666,2.0,95.28472863,35.61137459,-99999.0,'11111222,11111222,99999999' 
TABS,ioos:station:TABS:G:1,1997-07-01T06:30:00Z,29.5500,-93.4666,2.0,101.6938234,34.53682672,-99999.0,'11111222,11111222,99999999' 
TABS,ioos:station:TABS:G:1,1997-07-01T07:00:00Z,29.5500,-93.4666,2.0,96.48240496,39.59313703,-99999.0,'11111222,11111222,99999999' 
TABS,ioos:station:TABS:G:1,1997-07-01T07:30:00Z,29.5500,-93.4666,2.0,97.2760158,35.29420632,-99999.0,'11111222,11111222,99999999' 
TABS,ioos:station:TABS:G:1,1997-07-01T08:00:00Z,29.5500,-93.4666,2.0,103.0749645,36.8657524,-99999.0,'11111222,11111222,99999999' 
TABS,ioos:station:TABS:G:1,1997-07-01T08:30:00Z,29.5500,-93.4666,2.0,106.8587795,39.54975853,-99999.0,'11111222,11111222,99999999' 
TABS,ioos:station:TABS:G:1,1997-07-01T09:00:00Z,29.5500,-93.4666,2.0,111.9627543,38.23482183,-99999.0,'11111222,11111222,99999999' 
TABS,ioos:station:TABS:G:1,1997-07-01T09:30:00Z,29.5500,-93.4666,2.0,118.6350942,38.87481576,-99999.0,'11111222,11111222,99999999' 
TABS,ioos:station:TABS:G:1,1997-07-01T10:00:00Z,29.5500,-93.4666,2.0,121.8743764,40.35528466,-99999.0,'11111222,11111222,99999999' 
TABS,ioos:station:TABS:G:1,1997-07-01T10:30:00Z,29.5500,-93.4666,2.0,118.7921062,37.74650712,-99999.0,'11111222,11111222,99999999' 
TABS,ioos:station:TABS:G:1,1997-07-01T11:00:00Z,29.5500,-93.4666,2.0,121.0747633,41.57648013,-99999.0,'11111222,11111222,99999999' 
TABS,ioos:station:TABS:G:1,1997-07-01T11:30:00Z,29.5500,-93.4666,2.0,122.6301233,42.28370963,-99999.0,'11111222,11111222,99999999' 
TABS,ioos:station:TABS:G:1,1997-07-01T12:00:00Z,29.5500,-93.4666,2.0,121.1330304,41.77723782,-99999.0,'11111222,11111222,99999999' 
TABS,ioos:station:TABS:G:1,1997-07-01T12:30:00Z,29.5500,-93.4666,2.0,122.8322075,41.49899878,-99999.0,'11111222,11111222,99999999' 
TABS,ioos:station:TABS:G:1,1997-07-01T13:00:00Z,29.5500,-93.4666,2.0,126.6923811,39.3961889,-99999.0,'11111222,11111222,99999999' 
TABS,ioos:station:TABS:G:1,1997-07-01T13:30:00Z,29.5500,-93.4666,2.0,128.0896544,37.67253774,-99999.0,'11111222,11111222,99999999' 
TABS,ioos:station:TABS:G:1,1997-07-01T14:00:00Z,29.5500,-93.4666,2.0,128.3202296,35.31931624,-99999.0,'11111222,11111222,99999999' 
TABS,ioos:station:TABS:G:1,1997-07-01T14:30:00Z,29.5500,-93.4666,2.0,123.3391658,34.4253395,-99999.0,'11111222,11111222,99999999' 
TABS,ioos:station:TABS:G:1,1997-07-01T15:00:00Z,29.5500,-93.4666,2.0,116.9461075,30.25466906,-99999.0,'11111222,11111222,99999999' 
TABS,ioos:station:TABS:G:1,1997-07-01T15:30:00Z,29.5500,-93.4666,2.0,119.9504051,34.91228151,-99999.0,'11111222,11111222,99999999' 
TABS,ioos:station:TABS:G:1,1997-07-01T16:00:00Z,29.5500,-93.4666,2.0,123.9086928,31.24371617,-99999.0,'11111222,11111222,99999999' 
TABS,ioos:station:TABS:G:1,1997-07-01T16:30:00Z,29.5500,-93.4666,2.0,121.837889,31.92303244,-99999.0,'11111222,11111222,99999999' 
TABS,ioos:station:TABS:G:1,1997-07-01T17:00:00Z,29.5500,-93.4666,2.0,121.1508255,32.55403508,-99999.0,'11111222,11111222,99999999' 
TABS,ioos:station:TABS:G:1,1997-07-01T17:30:00Z,29.5500,-93.4666,2.0,121.5627504,34.44565865,-99999.0,'11111222,11111222,99999999' 
TABS,ioos:station:TABS:G:1,1997-07-01T18:00:00Z,29.5500,-93.4666,2.0,121.5956267,34.98612439,-99999.0,'11111222,11111222,99999999' 
TABS,ioos:station:TABS:G:1,1997-07-01T18:30:00Z,29.5500,-93.4666,2.0,125.5660353,32.78648807,-99999.0,'11111222,11111222,99999999' 
TABS,ioos:station:TABS:G:1,1997-07-01T19:00:00Z,29.5500,-93.4666,2.0,125.2833114,34.31315345,-99999.0,'11111222,11111222,99999999' 
TABS,ioos:station:TABS:G:1,1997-07-01T19:30:00Z,29.5500,-93.4666,2.0,122.6054028,39.26871528,-99999.0,'11111222,11111222,99999999' 
TABS,ioos:station:TABS:G:1,1997-07-01T20:00:00Z,29.5500,-93.4666,2.0,138.3019374,42.10740671,-99999.0,'11111222,11111222,99999999' 
TABS,ioos:station:TABS:G:1,1997-07-01T20:30:00Z,29.5500,-93.4666,2.0,138.3608224,43.0590815,-99999.0,'11111222,11111222,99999999' 
TABS,ioos:station:TABS:G:1,1997-07-01T21:00:00Z,29.5500,-93.4666,2.0,138.1818688,41.78371932,-99999.0,'11111222,11111222,99999999' 
TABS,ioos:station:TABS:G:1,1997-07-01T21:30:00Z,29.5500,-93.4666,2.0,142.6747727,41.03329502,-99999.0,'11111222,11111222,99999999' 
TABS,ioos:station:TABS:G:1,1997-07-01T22:00:00Z,29.5500,-93.4666,2.0,145.8923536,39.59000379,-99999.0,'11111222,11111222,99999999' 
TABS,ioos:station:TABS:G:1,1997-07-01T22:30:00Z,29.5500,-93.4666,2.0,142.2167225,39.40100506,-99999.0,'11111222,11111222,99999999' 
TABS,ioos:station:TABS:G:1,1997-07-01T23:00:00Z,29.5500,-93.4666,2.0,141.3348616,34.34885733,-99999.0,'11111222,11111222,99999999' 
TABS,ioos:station:TABS:G:1,1997-07-01T23:30:00Z,29.5500,-93.4666,2.0,138.0277646,33.86819895,-99999.0,'11111222,11111222,99999999' 
TABS,ioos:station:TABS:G:1,1997-07-02T00:00:00Z,29.5500,-93.4666,2.0,132.5712334,32.37214234,-99999.0,'11111222,11111222,99999999' 
TABS,ioos:station:TABS:G:1,1997-07-02T00:30:00Z,29.5500,-93.4666,2.0,133.0410829,27.72064213,-99999.0,'11111222,11111222,99999999' 
TABS,ioos:station:TABS:G:1,1997-07-02T01:00:00Z,29.5500,-93.4666,2.0,122.8671823,26.07359776,-99999.0,'11111222,11111222,99999999' 
TABS,ioos:station:TABS:G:1,1997-07-02T01:30:00Z,29.5500,-93.4666,2.0,118.4579892,22.20285567,-99999.0,'11111222,11111222,99999999' 
TABS,ioos:station:TABS:G:1,1997-07-02T02:00:00Z,29.5500,-93.4666,2.0,108.0495541,20.68808836,-99999.0,'11111222,11111222,99999999' 
TABS,ioos:station:TABS:G:1,1997-07-02T02:30:00Z,29.5500,-93.4666,2.0,100.2133446,16.80630834,-99999.0,'11111222,11111222,99999999' 
TABS,ioos:station:TABS:G:1,1997-07-02T03:00:00Z,29.5500,-93.4666,2.0,85.1139721,17.49357025,-99999.0,'11111222,11111222,99999999' 
TABS,ioos:station:TABS:G:1,1997-07-02T03:30:00Z,29.5500,-93.4666,2.0,82.01233214,18.20664165,-99999.0,'11111222,11111222,99999999' 
TABS,ioos:station:TABS:G:1,1997-07-02T04:00:00Z,29.5500,-93.4666,2.0,80.37633551,16.92823086,-99999.0,'11111222,11111222,99999999' 
TABS,ioos:station:TABS:G:1,1997-07-02T04:30:00Z,29.5500,-93.4666,2.0,81.33224466,17.78310434,-99999.0,'11111222,11111222,99999999' 
TABS,ioos:station:TABS:G:1,1997-07-02T05:00:00Z,29.5500,-93.4666,2.0,82.65488571,15.17452141,-99999.0,'11111222,11111222,99999999' 
TABS,ioos:station:TABS:G:1,1997-07-02T05:30:00Z,29.5500,-93.4666,2.0,86.64927913,12.83193672,-99999.0,'11111222,11111222,99999999' 
TABS,ioos:station:TABS:G:1,1997-07-02T06:00:00Z,29.5500,-93.4666,2.0,71.35555002,12.10527984,-99999.0,'11111222,11111222,99999999' 
TABS,ioos:station:TABS:G:1,1997-07-02T06:30:00Z,29.5500,-93.4666,2.0,86.04698376,15.08589076,-99999.0,'11111222,11111222,99999999' 
TABS,ioos:station:TABS:G:1,1997-07-02T07:00:00Z,29.5500,-93.4666,2.0,85.96684613,14.78661895,-99999.0,'11111222,11111222,99999999' 
TABS,ioos:station:TABS:G:1,1997-07-02T07:30:00Z,29.5500,-93.4666,2.0,91.80210018,19.07943657,-99999.0,'11111222,11111222,99999999' 
TABS,ioos:station:TABS:G:1,1997-07-02T08:00:00Z,29.5500,-93.4666,2.0,93.5499027,21.6415249,-99999.0,'11111222,11111222,99999999' 
TABS,ioos:station:TABS:G:1,1997-07-02T08:30:00Z,29.5500,-93.4666,2.0,101.0848654,22.46919892,-99999.0,'11111222,11111222,99999999' 
TABS,ioos:station:TABS:G:1,1997-07-02T09:00:00Z,29.5500,-93.4666,2.0,109.0592021,25.54007048,-99999.0,'11111222,11111222,99999999' 
TABS,ioos:station:TABS:G:1,1997-07-02T09:30:00Z,29.5500,-93.4666,2.0,114.0655753,25.9451826,-99999.0,'11111222,11111222,99999999' 
TABS,ioos:station:TABS:G:1,1997-07-02T10:00:00Z,29.5500,-93.4666,2.0,115.8529837,26.99142456,-99999.0,'11111222,11111222,99999999' 
TABS,ioos:station:TABS:G:1,1997-07-02T10:30:00Z,29.5500,-93.4666,2.0,114.5150134,28.00454963,-99999.0,'11111222,11111222,99999999' 
TABS,ioos:station:TABS:G:1,1997-07-02T11:00:00Z,29.5500,-93.4666,2.0,116.5560464,28.65297541,-99999.0,'11111222,11111222,99999999' 
TABS,ioos:station:TABS:G:1,1997-07-02T11:30:00Z,29.5500,-93.4666,2.0,119.2703848,26.81350779,-99999.0,'11111222,11111222,99999999' 
TABS,ioos:station:TABS:G:1,1997-07-02T12:00:00Z,29.5500,-93.4666,2.0,122.1680673,27.98617695,-99999.0,'11111222,11111222,99999999' 
TABS,ioos:station:TABS:G:1,1997-07-02T12:30:00Z,29.5500,-93.4666,2.0,120.345935,26.24595397,-99999.0,'11111222,11111222,99999999' 
TABS,ioos:station:TABS:G:1,1997-07-02T13:00:00Z,29.5500,-93.4666,2.0,117.8681723,23.59662052,-99999.0,'11111222,11111222,99999999' 
TABS,ioos:station:TABS:G:1,1997-07-02T13:30:00Z,29.5500,-93.4666,2.0,116.0574622,22.71934198,-99999.0,'11111222,11111222,99999999' 
TABS,ioos:station:TABS:G:1,1997-07-02T14:00:00Z,29.5500,-93.4666,2.0,110.6003363,21.17392028,-99999.0,'11111222,11111222,99999999' 
TABS,ioos:station:TABS:G:1,1997-07-02T14:30:00Z,29.5500,-93.4666,2.0,115.0521714,22.52952951,-99999.0,'11111222,11111222,99999999' 
TABS,ioos:station:TABS:G:1,1997-07-02T15:00:00Z,29.5500,-93.4666,2.0,119.2959128,23.74717878,-99999.0,'11111222,11111222,99999999' 
TABS,ioos:station:TABS:G:1,1997-07-02T15:30:00Z,29.5500,-93.4666,2.0,122.1136843,24.09697491,-99999.0,'11111222,11111222,99999999' 
TABS,ioos:station:TABS:G:1,1997-07-02T16:00:00Z,29.5500,-93.4666,2.0,119.690026,20.75474163,-99999.0,'11111222,11111222,99999999' 
TABS,ioos:station:TABS:G:1,1997-07-02T16:30:00Z,29.5500,-93.4666,2.0,112.9187894,19.90104017,-99999.0,'11111222,11111222,99999999' 
TABS,ioos:station:TABS:G:1,1997-07-02T17:00:00Z,29.5500,-93.4666,2.0,116.1108719,16.92756628,-99999.0,'11111222,11111222,99999999' 
TABS,ioos:station:TABS:G:1,1997-07-02T17:30:00Z,29.5500,-93.4666,2.0,111.8642516,21.99191215,-99999.0,'11111222,11111222,99999999' 
TABS,ioos:station:TABS:G:1,1997-07-02T18:00:00Z,29.5500,-93.4666,2.0,111.7315466,21.33641019,-99999.0,'11111222,11111222,99999999' 
TABS,ioos:station:TABS:G:1,1997-07-02T18:30:00Z,29.5500,-93.4666,2.0,118.1650767,21.46120453,-99999.0,'11111222,11111222,99999999' 
TABS,ioos:station:TABS:G:1,1997-07-02T19:00:00Z,29.5500,-93.4666,2.0,124.1883163,23.59783888,-99999.0,'11111222,11111222,99999999' 
TABS,ioos:station:TABS:G:1,1997-07-02T19:30:00Z,29.5500,-93.4666,2.0,127.0111856,23.50607156,-99999.0,'11111222,11111222,99999999' 
TABS,ioos:station:TABS:G:1,1997-07-02T20:00:00Z,29.5500,-93.4666,2.0,120.6277088,26.32205539,-99999.0,'11111222,11111222,99999999' 
TABS,ioos:station:TABS:G:1,1997-07-02T20:30:00Z,29.5500,-93.4666,2.0,134.7718687,26.65106564,-99999.0,'11111222,11111222,99999999' 
TABS,ioos:station:TABS:G:1,1997-07-02T21:00:00Z,29.5500,-93.4666,2.0,134.9998948,27.3933167,-99999.0,'11111222,11111222,99999999' 
TABS,ioos:station:TABS:G:1,1997-07-02T21:30:00Z,29.5500,-93.4666,2.0,137.6862393,27.00580123,-99999.0,'11111222,11111222,99999999' 
TABS,ioos:station:TABS:G:1,1997-07-02T22:00:00Z,29.5500,-93.4666,2.0,140.8407186,23.83302121,-99999.0,'11111222,11111222,99999999' 
TABS,ioos:station:TABS:G:1,1997-07-02T22:30:00Z,29.5500,-93.4666,2.0,153.754686,36.04597758,-99999.0,'11111222,11111222,99999999' 
TABS,ioos:station:TABS:G:1,1997-07-02T23:00:00Z,29.5500,-93.4666,2.0,152.7351137,37.72080726,-99999.0,'11111222,11111222,99999999' 
TABS,ioos:station:TABS:G:1,1997-07-02T23:30:00Z,29.5500,-93.4666,2.0,152.7603244,34.19184844,-99999.0,'11111222,11111222,99999999' 
TABS,ioos:station:TABS:G:1,1997-07-03T00:00:00Z,29.5500,-93.4666,2.0,147.7554732,31.00096773,-99999.0,'11111222,11111222,99999999' 
TABS,ioos:station:TABS:G:1,1997-07-03T00:30:00Z,29.5500,-93.4666,2.0,147.4213203,29.88177538,-99999.0,'11111222,11111222,99999999' 
TABS,ioos:station:TABS:G:1,1997-07-03T01:00:00Z,29.5500,-93.4666,2.0,140.9742041,29.34877169,-99999.0,'11111222,11111222,99999999' 
TABS,ioos:station:TABS:G:1,1997-07-03T01:30:00Z,29.5500,-93.4666,2.0,140.6255002,24.66956424,-99999.0,'11111222,11111222,99999999' 
TABS,ioos:station:TABS:G:1,1997-07-03T02:00:00Z,29.5500,-93.4666,2.0,130.808997,23.0284042,-99999.0,'11111222,11111222,99999999' 
TABS,ioos:station:TABS:G:1,1997-07-03T02:30:00Z,29.5500,-93.4666,2.0,127.9492786,22.29395658,-99999.0,'11111222,11111222,99999999' 
TABS,ioos:station:TABS:G:1,1997-07-03T03:00:00Z,29.5500,-93.4666,2.0,122.1048053,20.75372979,-99999.0,'11111222,11111222,99999999' 
TABS,ioos:station:TABS:G:1,1997-07-03T03:30:00Z,29.5500,-93.4666,2.0,114.9787045,19.06307688,-99999.0,'11111222,11111222,99999999' 
TABS,ioos:station:TABS:G:1,1997-07-03T04:00:00Z,29.5500,-93.4666,2.0,111.2758537,15.18494649,-99999.0,'11111222,11111222,99999999' 
TABS,ioos:station:TABS:G:1,1997-07-03T04:30:00Z,29.5500,-93.4666,2.0,101.9524795,12.9405564,-99999.0,'11111222,11111222,99999999' 
TABS,ioos:station:TABS:G:1,1997-07-03T05:00:00Z,29.5500,-93.4666,2.0,95.36983186,12.71580513,-99999.0,'11111222,11111222,99999999' 
TABS,ioos:station:TABS:G:1,1997-07-03T05:30:00Z,29.5500,-93.4666,2.0,71.56509429,14.13538114,-99999.0,'11111222,11111222,99999999' 
TABS,ioos:station:TABS:G:1,1997-07-03T06:00:00Z,29.5500,-93.4666,2.0,72.82337705,13.10447633,-99999.0,'11111222,11111222,99999999' 
TABS,ioos:station:TABS:G:1,1997-07-03T06:30:00Z,29.5500,-93.4666,2.0,63.45172984,15.32601057,-99999.0,'11111222,11111222,99999999' 
TABS,ioos:station:TABS:G:1,1997-07-03T07:00:00Z,29.5500,-93.4666,2.0,57.28806922,11.86121832,-99999.0,'11111222,11111222,99999999' 
TABS,ioos:station:TABS:G:1,1997-07-03T07:30:00Z,29.5500,-93.4666,2.0,66.24712626,12.21469607,-99999.0,'11111222,11111222,99999999' 
TABS,ioos:station:TABS:G:1,1997-07-03T08:00:00Z,29.5500,-93.4666,2.0,70.25890525,14.5660736,-99999.0,'11111222,11111222,99999999' 
TABS,ioos:station:TABS:G:1,1997-07-03T08:30:00Z,29.5500,-93.4666,2.0,86.16012395,13.28983446,-99999.0,'11111222,11111222,99999999' 
TABS,ioos:station:TABS:G:1,1997-07-03T09:00:00Z,29.5500,-93.4666,2.0,97.13767478,16.82035077,-99999.0,'11111222,11111222,99999999' 
TABS,ioos:station:TABS:G:1,1997-07-03T09:30:00Z,29.5500,-93.4666,2.0,101.819903,16.74505897,-99999.0,'11111222,11111222,99999999' 
TABS,ioos:station:TABS:G:1,1997-07-03T10:00:00Z,29.5500,-93.4666,2.0,107.5868413,19.22875451,-99999.0,'11111222,11111222,99999999' 
TABS,ioos:station:TABS:G:1,1997-07-03T10:30:00Z,29.5500,-93.4666,2.0,113.7308847,20.35074937,-99999.0,'11111222,11111222,99999999' 
TABS,ioos:station:TABS:G:1,1997-07-03T11:00:00Z,29.5500,-93.4666,2.0,120.514349,23.1804616,-99999.0,'11111222,11111222,99999999' 
TABS,ioos:station:TABS:G:1,1997-07-03T11:30:00Z,29.5500,-93.4666,2.0,117.229899,23.12249986,-99999.0,'11111222,11111222,99999999' 
TABS,ioos:station:TABS:G:1,1997-07-03T12:00:00Z,29.5500,-93.4666,2.0,120.3749703,25.03668508,-99999.0,'11111222,11111222,99999999' 
TABS,ioos:station:TABS:G:1,1997-07-03T12:30:00Z,29.5500,-93.4666,2.0,125.0420799,26.21133533,-99999.0,'11111222,11111222,99999999' 
TABS,ioos:station:TABS:G:1,1997-07-03T13:00:00Z,29.5500,-93.4666,2.0,115.689592,21.66108261,-99999.0,'11111222,11111222,99999999' 
TABS,ioos:station:TABS:G:1,1997-07-03T13:30:00Z,29.5500,-93.4666,2.0,117.0055621,25.59031848,-99999.0,'11111222,11111222,99999999' 
TABS,ioos:station:TABS:G:1,1997-07-03T14:00:00Z,29.5500,-93.4666,2.0,127.8170579,28.67191832,-99999.0,'11111222,11111222,99999999' 
TABS,ioos:station:TABS:G:1,1997-07-03T14:30:00Z,29.5500,-93.4666,2.0,132.0773386,26.90505157,-99999.0,'11111222,11111222,99999999' 
TABS,ioos:station:TABS:G:1,1997-07-03T15:00:00Z,29.5500,-93.4666,2.0,134.7664175,26.02881672,-99999.0,'11111222,11111222,99999999' 
TABS,ioos:station:TABS:G:1,1997-07-03T15:30:00Z,29.5500,-93.4666,2.0,133.2385494,23.92565569,-99999.0,'11111222,11111222,99999999' 
TABS,ioos:station:TABS:G:1,1997-07-03T16:00:00Z,29.5500,-93.4666,2.0,137.385167,25.31514369,-99999.0,'11111222,11111222,99999999' 
TABS,ioos:station:TABS:G:1,1997-07-03T16:30:00Z,29.5500,-93.4666,2.0,140.5954069,24.87433416,-99999.0,'11111222,11111222,99999999' 
TABS,ioos:station:TABS:G:1,1997-07-03T17:00:00Z,29.5500,-93.4666,2.0,147.2569266,22.31586431,-99999.0,'11111222,11111222,99999999' 
TABS,ioos:station:TABS:G:1,1997-07-03T17:30:00Z,29.5500,-93.4666,2.0,146.677435,25.50286651,-99999.0,'11111222,11111222,99999999' 
TABS,ioos:station:TABS:G:1,1997-07-03T18:00:00Z,29.5500,-93.4666,2.0,148.7808376,23.86597997,-99999.0,'11111222,11111222,99999999' 
TABS,ioos:station:TABS:G:1,1997-07-03T18:30:00Z,29.5500,-93.4666,2.0,152.4545524,23.52687825,-99999.0,'11111222,11111222,99999999' 
TABS,ioos:station:TABS:G:1,1997-07-03T19:00:00Z,29.5500,-93.4666,2.0,154.6206142,22.25811537,-99999.0,'11111222,11111222,99999999' 
TABS,ioos:station:TABS:G:1,1997-07-03T19:30:00Z,29.5500,-93.4666,2.0,153.6046368,21.12199091,-99999.0,'11111222,11111222,99999999' 
TABS,ioos:station:TABS:G:1,1997-07-03T20:00:00Z,29.5500,-93.4666,2.0,154.5143493,21.12564792,-99999.0,'11111222,11111222,99999999' 
TABS,ioos:station:TABS:G:1,1997-07-03T20:30:00Z,29.5500,-93.4666,2.0,159.5942172,20.50685008,-99999.0,'11111222,11111222,99999999' 
TABS,ioos:station:TABS:G:1,1997-07-03T21:00:00Z,29.5500,-93.4666,2.0,156.4616114,20.15720467,-99999.0,'11111222,11111222,99999999' 
TABS,ioos:station:TABS:G:1,1997-07-03T21:30:00Z,29.5500,-93.4666,2.0,151.0975001,19.73854098,-99999.0,'11111222,11111222,99999999' 
TABS,ioos:station:TABS:G:1,1997-07-03T22:00:00Z,29.5500,-93.4666,2.0,145.9334533,19.42324638,-99999.0,'11111222,11111222,99999999' 
TABS,ioos:station:TABS:G:1,1997-07-03T22:30:00Z,29.5500,-93.4666,2.0,142.5197798,19.34309696,-99999.0,'11111222,11111222,99999999' 
TABS,ioos:station:TABS:G:1,1997-07-03T23:00:00Z,29.5500,-93.4666,2.0,137.9298893,16.46175264,-99999.0,'11111222,11111222,99999999' 
TABS,ioos:station:TABS:G:1,1997-07-03T23:30:00Z,29.5500,-93.4666,2.0,143.7300832,17.37695313,-99999.0,'11111222,11111222,99999999' 
TABS,ioos:station:TABS:G:1,1997-07-04T00:00:00Z,29.5500,-93.4666,2.0,137.9411797,18.46567085,-99999.0,'11111222,11111222,99999999' 
TABS,ioos:station:TABS:G:1,1997-07-04T00:30:00Z,29.5500,-93.4666,2.0,138.1752793,15.19076364,-99999.0,'11111222,11111222,99999999' 
TABS,ioos:station:TABS:G:1,1997-07-04T01:00:00Z,29.5500,-93.4666,2.0,118.1531193,14.20001408,-99999.0,'11111222,11111222,99999999' 
TABS,ioos:station:TABS:G:1,1997-07-04T01:30:00Z,29.5500,-93.4666,2.0,135.8873639,20.54391637,-99999.0,'11111222,11111222,99999999' 
TABS,ioos:station:TABS:G:1,1997-07-04T02:00:00Z,29.5500,-93.4666,2.0,139.6630121,22.09243309,-99999.0,'11111222,11111222,99999999' 
TABS,ioos:station:TABS:G:1,1997-07-04T02:30:00Z,29.5500,-93.4666,2.0,143.7215722,20.14507384,-99999.0,'11111222,11111222,99999999' 
TABS,ioos:station:TABS:G:1,1997-07-04T03:00:00Z,29.5500,-93.4666,2.0,133.3811009,26.03191887,-99999.0,'11111222,11111222,99999999' 
TABS,ioos:station:TABS:G:1,1997-07-04T03:30:00Z,29.5500,-93.4666,2.0,134.9998948,21.28391411,-99999.0,'11111222,11111222,99999999' 
TABS,ioos:station:TABS:G:1,1997-07-04T04:00:00Z,29.5500,-93.4666,2.0,130.2202633,18.92434675,-99999.0,'11111222,11111222,99999999' 
TABS,ioos:station:TABS:G:1,1997-07-04T04:30:00Z,29.5500,-93.4666,2.0,131.6668394,19.94586674,-99999.0,'11111222,11111222,99999999' 
TABS,ioos:station:TABS:G:1,1997-07-04T05:00:00Z,29.5500,-93.4666,2.0,123.9023774,22.44609766,-99999.0,'11111222,11111222,99999999' 
TABS,ioos:station:TABS:G:1,1997-07-04T05:30:00Z,29.5500,-93.4666,2.0,126.9489154,18.83201795,-99999.0,'11111222,11111222,99999999' 
TABS,ioos:station:TABS:G:1,1997-07-04T06:00:00Z,29.5500,-93.4666,2.0,125.6513419,18.15210456,-99999.0,'11111222,11111222,99999999' 
TABS,ioos:station:TABS:G:1,1997-07-04T06:30:00Z,29.5500,-93.4666,2.0,129.8676675,15.33498614,-99999.0,'11111222,11111222,99999999' 
TABS,ioos:station:TABS:G:1,1997-07-04T07:00:00Z,29.5500,-93.4666,2.0,130.8857147,16.1636877,-99999.0,'11111222,11111222,99999999' 
TABS,ioos:station:TABS:G:1,1997-07-04T07:30:00Z,29.5500,-93.4666,2.0,143.2514773,13.20402969,-99999.0,'11111222,11111222,99999999' 
TABS,ioos:station:TABS:G:1,1997-07-04T08:00:00Z,29.5500,-93.4666,2.0,142.1704757,14.33200963,-99999.0,'11111222,11111222,99999999' 
TABS,ioos:station:TABS:G:1,1997-07-04T08:30:00Z,29.5500,-93.4666,2.0,146.6247282,14.63321222,-99999.0,'11111222,11111222,99999999' 
TABS,ioos:station:TABS:G:1,1997-07-04T09:00:00Z,29.5500,-93.4666,2.0,156.0229417,16.14298919,-99999.0,'11111222,11111222,99999999' 
TABS,ioos:station:TABS:G:1,1997-07-04T09:30:00Z,29.5500,-93.4666,2.0,158.198431,16.85556585,-99999.0,'11111222,11111222,99999999' 
TABS,ioos:station:TABS:G:1,1997-07-04T10:00:00Z,29.5500,-93.4666,2.0,153.8272303,19.58841494,-99999.0,'11111222,11111222,99999999' 
TABS,ioos:station:TABS:G:1,1997-07-04T10:30:00Z,29.5500,-93.4666,2.0,156.4412067,19.01485998,-99999.0,'11111222,11111222,99999999' 
TABS,ioos:station:TABS:G:1,1997-07-04T11:00:00Z,29.5500,-93.4666,2.0,156.2864783,21.48391259,-99999.0,'11111222,11111222,99999999' 
TABS,ioos:station:TABS:G:1,1997-07-04T11:30:00Z,29.5500,-93.4666,2.0,162.7714983,20.12287256,-99999.0,'11111222,11111222,99999999' 
TABS,ioos:station:TABS:G:1,1997-07-04T12:00:00Z,29.5500,-93.4666,2.0,161.3245303,21.86101782,-99999.0,'11111222,11111222,99999999' 
TABS,ioos:station:TABS:G:1,1997-07-04T12:30:00Z,29.5500,-93.4666,2.0,167.4679945,20.60080096,-99999.0,'11111222,11111222,99999999' 
TABS,ioos:station:TABS:G:1,1997-07-04T13:00:00Z,29.5500,-93.4666,2.0,166.0721755,19.19430384,-99999.0,'11111222,11111222,99999999' 
TABS,ioos:station:TABS:G:1,1997-07-04T13:30:00Z,29.5500,-93.4666,2.0,158.7239359,15.18494649,-99999.0,'11111222,11111222,99999999' 
TABS,ioos:station:TABS:G:1,1997-07-04T14:00:00Z,29.5500,-93.4666,2.0,164.6788984,12.98134431,-99999.0,'11111222,11111222,99999999' 
TABS,ioos:station:TABS:G:1,1997-07-04T14:30:00Z,29.5500,-93.4666,2.0,167.4060746,14.35538227,-99999.0,'11111222,11111222,99999999' 
TABS,ioos:station:TABS:G:1,1997-07-04T15:00:00Z,29.5500,-93.4666,2.0,153.8272303,19.58841494,-99999.0,'11111222,11111222,99999999' 
TABS,ioos:station:TABS:G:1,1997-07-04T15:30:00Z,29.5500,-93.4666,2.0,164.6986613,16.37029322,-99999.0,'11111222,11111222,99999999' 
TABS,ioos:station:TABS:G:1,1997-07-04T16:00:00Z,29.5500,-93.4666,2.0,155.8019212,19.27346362,-99999.0,'11111222,11111222,99999999' 
TABS,ioos:station:TABS:G:1,1997-07-04T16:30:00Z,29.5500,-93.4666,2.0,168.5832937,15.81287134,-99999.0,'11111222,11111222,99999999' 
TABS,ioos:station:TABS:G:1,1997-07-04T17:00:00Z,29.5500,-93.4666,2.0,172.0358384,16.09523221,-99999.0,'11111222,11111222,99999999' 
TABS,ioos:station:TABS:G:1,1997-07-04T17:30:00Z,29.5500,-93.4666,2.0,174.0512889,14.37741632,-99999.0,'11111222,11111222,99999999' 
TABS,ioos:station:TABS:G:1,1997-07-04T18:00:00Z,29.5500,-93.4666,2.0,175.8831873,14.48737726,-99999.0,'11111222,11111222,99999999' 